Weather in La Serena

Chile     29°54′23″S   71°14′46″W
В апреле 2022 года жителям России запретили посещать сайт meteo.paraplan.net по решению Генеральной прокуратуры. Аудитория сайта уменьшилась в 10 раз. Владельцы сайта не видят смысла в поддержке погодного сервера в таких условиях. Сайт будет закрыт в октябре.
temp.,
°C
wind,
m/s
gust,
m/s
humid.,
%
clouds,
%
prec.,
mm/h
press.,
hPa
HPBL,
m
30 september, fri
fri3000:00+12wnw11917 0.0 101961
03:00+10nw119627 0.0 101826
06:00+10wnw11964 0.0 101614
09:00+12nw118720 0.0 1017182
12:00+17wnw21631 0.0 1016401
15:00+17wnw4368100 0.0 1015409
18:00+16nw327210 0.0 1014335
21:00+12n228731 0.0 1015178
1 october, sat
sat100:00+13n22853 0.0 101587
03:00+11n11921 0.0 101429
06:00+10nw119616 0.0 101411
09:00+12nw118520 0.0 1017225
12:00+16wnw32670 0.0 1018476
15:00+15wnw337016 0.0 1018543
18:00+17w32624 0.0 1016297
21:00+13sw01827 0.0 101773
2 october, sun
sun200:00+13nw11832 0.0 101640
03:00+12nnw11871 0.0 101517
06:00+11nw11890 0.0 101512
09:00+14nw22762 0.0 1016137
12:00+18wnw32612 0.0 1016357
15:00+19wnw3258100 0.0 1015396
18:00+18wnw2161100 0.0 1014267
21:00+13nw11810 0.0 101576
3 october, mon
mon300:00+13nne22810 0.0 101557
03:00+12wnw22820 0.0 101519
06:00+11nw22895 0.0 101515
09:00+13nw11815 0.0 1017172
12:00+17wnw32603 0.0 1018406
15:00+18wnw435110 0.0 1017442
18:00+15wnw2258100 0.0 1016323
21:00+12nnw1170100 0.0 101791
4 october, tue
tue400:00+12nne11634 0.0 101813
03:00+11wsw11620 0.0 101711
06:00+10ne11680 0.0 101710
09:00+14wnw114941 0.0 1018123
12:00+18wnw323789 0.0 1019476
15:00+18wnw4240100 0.0 1018507
18:00+17nnw324299 0.0 1018448
21:00+14nne11575 0.0 101839